Theta_e
341 341 340 340 340 340 340 340 339 338 339 340 340 339 339 339 339 339 339 339 340 339 339 339 341 341 341 341 340 340 340 339 338 339 339 339 340 340 340 340 339 339 339 340 339 339 339 339 339 339 339 339 339 338 338 337 338 338 338 337 337 336 336 335 333 332 333 333 332 331 330 329 329 329 326 324 323 323 322 324 328 330 330 331 332
341 340 341 340 340 340 340 340 339 339 340 341 340 339 339 339 339 339 339 339 339 339 338 340 341 341 341 341 341 340 340 340 339 339 339 339 339 340 340 340 340 339 339 339 338 338 338 338 338 339 339 339 339 338 337 338 338 337 337 337 337 336 335 334 333 332 333 333 332 331 330 328 327 326 324 323 323 322 321 322 325 327 328 329 330
342 341 341 342 341 341 341 341 341 341 341 341 340 340 339 340 339 339 339 339 339 339 339 340 341 342 341 341 341 341 340 340 340 340 339 339 339 340 340 340 340 340 339 338 338 338 337 337 337 338 337 337 337 338 338 338 338 337 336 337 337 336 335 334 333 332 333 333 331 330 329 326 324 324 323 323 324 323 323 324 325 325 326 328 328
342 342 343 343 343 343 342 342 342 341 341 341 340 339 339 340 340 340 339 339 339 339 339 339 340 341 342 341 341 341 340 340 340 339 340 339 340 340 340 340 340 340 340 338 337 337 336 336 337 337 337 336 337 337 337 337 337 336 336 336 336 336 335 334 333 333 332 332 331 329 327 323 321 322 323 323 323 324 324 325 325 325 325 326 326
343 343 344 344 344 344 343 343 342 341 341 340 339 339 339 340 340 339 339 339 339 339 338 339 340 341 341 342 341 341 340 340 339 339 339 339 340 340 340 340 339 340 340 339 337 337 336 336 335 335 336 336 336 336 335 336 337 336 336 335 335 336 335 334 333 332 332 331 329 326 325 322 320 321 322 321 322 324 325 324 324 324 324 324 324
344 344 344 345 345 345 344 343 342 341 341 340 340 340 340 340 340 340 339 339 339 339 339 339 339 340 341 341 341 341 341 340 340 338 337 337 339 340 339 339 340 340 340 339 338 338 337 335 333 334 336 335 335 335 335 336 337 336 336 336 335 336 335 334 333 332 331 329 326 323 323 322 320 320 321 321 322 324 323 322 323 323 323 323 324
344 345 345 345 345 346 345 343 342 341 341 340 340 340 340 341 340 339 339 339 339 339 339 340 340 339 340 340 341 341 341 341 341 339 337 337 338 339 339 339 340 339 339 339 339 338 338 336 334 335 336 335 334 335 335 336 338 337 336 336 336 336 335 333 332 331 329 326 323 322 322 322 321 321 321 321 323 324 321 321 322 322 322 323 323
345 345 345 346 346 345 344 343 343 342 341 341 341 341 341 341 341 340 340 340 340 340 340 340 340 339 339 339 339 340 340 341 340 340 339 338 338 339 339 339 339 339 339 339 339 339 338 337 336 335 334 334 334 335 335 336 337 338 336 336 336 335 333 332 330 328 326 323 322 321 321 321 321 321 321 321 321 321 320 320 321 321 322 322 322
345 345 345 345 345 344 344 344 343 342 341 341 341 341 341 341 341 341 340 340 340 340 339 339 339 339 339 338 338 339 340 340 339 339 338 338 338 339 339 339 339 337 337 336 335 337 338 338 337 336 335 335 335 335 334 335 336 337 336 336 335 334 331 330 328 325 323 322 321 321 321 320 320 320 320 320 320 320 320 320 320 321 320 320 322
345 345 345 345 344 344 344 343 343 342 342 342 342 342 341 341 341 341 340 340 340 340 339 339 339 339 338 338 338 338 338 338 338 338 337 337 338 339 339 339 338 336 336 334 333 334 337 337 337 337 336 335 334 332 331 331 332 334 335 334 334 332 330 328 326 324 322 321 321 321 320 320 320 319 320 320 320 320 320 319 319 319 319 319 320
345 345 344 344 344 343 343 342 342 341 341 342 342 342 341 341 341 341 341 341 341 340 339 339 339 339 339 339 338 337 337 337 336 333 333 334 336 339 339 338 337 336 335 334 333 334 335 337 337 337 336 334 332 328 325 326 328 331 332 332 331 330 328 327 325 322 321 321 321 320 319 320 320 319 320 320 319 319 319 318 318 318 319 318 319
344 344 344 344 343 342 341 342 341 340 341 341 341 341 341 341 341 341 341 342 341 340 339 339 340 340 339 339 339 338 338 337 334 330 329 329 331 335 339 338 337 337 336 335 334 333 334 336 338 337 335 333 330 328 325 324 328 330 330 330 329 327 325 325 323 322 321 320 320 320 320 320 320 319 320 319 318 318 318 318 318 318 318 318 318
344 343 344 343 343 342 341 341 340 339 340 340 340 340 340 340 340 339 340 341 341 340 340 339 340 341 340 340 339 339 339 337 334 331 330 328 327 331 336 337 336 336 335 334 333 332 333 337 338 337 335 332 330 330 329 327 328 330 330 328 325 322 320 320 320 321 321 321 320 320 320 320 320 320 320 319 318 318 318 318 318 317 317 317 317
343 343 343 343 343 342 341 341 341 341 341 340 340 340 339 339 338 338 339 340 340 340 340 339 339 340 341 341 340 340 340 338 336 333 331 329 327 329 333 336 336 336 336 335 334 334 335 337 337 336 335 333 331 332 332 330 329 329 328 326 323 320 317 315 315 317 319 320 321 321 320 320 319 319 320 319 318 318 318 318 318 317 317 316 316
343 343 343 342 342 343 342 341 341 341 342 342 341 340 340 340 340 339 340 339 338 339 339 339 338 338 339 340 340 340 340 338 336 335 332 329 327 328 331 335 337 337 337 337 336 336 337 336 336 335 335 335 333 332 332 331 330 328 326 324 323 321 318 316 314 315 316 318 320 320 320 320 320 320 320 320 319 318 318 318 317 317 316 316 316
342 342 342 342 342 342 341 341 342 342 342 342 342 341 341 341 341 341 340 339 339 338 338 338 338 337 337 339 339 340 339 337 336 335 332 328 327 328 330 334 336 337 337 337 337 336 336 336 336 335 334 335 334 331 330 330 329 328 326 325 323 323 321 319 317 315 315 317 319 319 320 319 318 317 317 317 318 318 318 317 317 317 317 316 315
340 342 341 340 340 340 340 341 342 342 342 341 341 341 341 342 343 342 341 340 340 339 339 338 338 337 337 337 338 340 339 337 335 335 332 327 326 328 331 333 336 336 337 337 336 336 336 336 335 335 334 334 333 331 329 328 328 328 326 325 325 324 324 322 319 315 314 315 317 317 317 315 314 314 314 313 315 316 317 317 316 316 316 315 316
339 340 340 339 339 339 339 340 340 341 340 340 339 340 340 341 342 342 341 341 341 340 339 338 337 337 337 336 337 339 339 338 335 335 332 327 326 329 332 334 335 336 336 336 336 336 335 335 334 334 334 333 332 331 329 327 328 328 327 326 326 325 324 324 322 318 314 313 314 314 314 314 312 312 312 312 312 313 315 317 316 315 315 315 316
337 338 339 338 338 338 338 338 339 339 338 338 338 338 339 340 340 340 339 340 340 340 339 338 338 337 336 336 336 337 339 338 336 334 332 328 327 330 333 334 335 336 335 335 335 335 335 334 332 332 332 333 332 331 329 327 327 328 327 326 326 326 325 324 323 321 317 315 314 314 314 313 312 311 310 310 310 311 313 316 316 315 315 315 315
335 336 336 336 336 337 337 337 337 337 337 337 337 337 338 338 339 339 338 338 339 339 338 338 338 337 335 335 335 336 337 337 336 333 330 328 327 329 333 335 335 335 335 334 334 335 335 335 333 330 330 331 330 330 328 327 326 327 327 327 326 326 326 324 322 322 320 319 318 317 318 317 315 313 312 310 308 307 309 314 316 316 315 315 315
333 332 333 334 334 335 335 335 336 336 336 337 337 338 338 339 338 338 337 336 337 338 337 337 337 336 335 334 334 334 334 335 335 332 329 328 327 328 332 334 334 334 335 334 334 334 334 335 334 332 330 329 329 329 328 327 326 326 327 327 326 326 326 324 322 321 321 320 320 320 320 320 319 318 317 316 314 311 311 314 316 316 315 315 314
331 331 332 332 332 333 333 333 331 331 333 336 337 338 339 339 338 336 335 335 336 337 337 336 335 335 333 332 333 333 333 333 334 331 328 328 328 328 331 334 334 333 334 334 333 333 333 333 333 333 331 329 328 328 327 327 326 325 325 326 326 325 325 323 322 322 321 319 319 319 319 319 319 318 317 317 317 316 316 316 316 315 315 314 314
329 331 332 332 332 333 334 332 330 331 333 335 337 338 338 337 336 335 334 335 335 335 336 335 334 334 333 332 331 332 332 333 332 329 327 328 329 330 331 333 333 333 333 333 333 333 333 333 333 332 331 330 328 328 327 327 327 326 325 325 324 324 324 322 322 322 321 319 318 318 318 318 318 317 317 316 316 316 317 316 316 315 315 314 313
324 327 329 331 332 333 333 332 331 332 333 332 334 337 336 335 335 333 333 333 333 334 335 334 334 333 332 331 331 331 332 332 329 327 328 329 330 330 331 331 331 331 332 332 332 332 333 333 332 331 330 329 328 327 326 326 326 326 326 325 323 322 322 321 321 321 321 320 319 318 317 317 317 317 317 316 315 316 317 316 316 315 314 313 312
324 325 326 329 331 331 331 331 332 333 331 330 332 335 334 333 333 332 332 332 332 333 334 333 333 332 331 331 331 331 332 331 329 327 328 329 330 330 331 331 330 330 330 330 331 331 331 330 330 329 329 328 328 326 326 325 325 324 325 325 323 321 319 320 320 321 321 321 320 318 317 317 317 317 316 316 316 316 316 315 315 315 314 313 312
328 328 327 328 329 329 330 331 332 333 332 331 332 333 333 332 333 332 332 332 332 333 333 333 332 331 331 331 332 332 332 332 330 328 328 329 330 330 330 330 329 329 328 329 329 329 328 328 328 328 327 327 326 325 324 324 324 323 322 322 322 320 319 320 321 321 321 322 320 319 318 317 317 317 317 317 316 315 314 315 315 314 313 312 311
329 328 328 328 327 328 329 331 332 332 332 332 332 333 332 332 332 331 331 331 332 332 332 331 330 330 331 332 333 332 333 332 331 329 328 329 329 330 330 329 328 327 327 327 327 327 326 326 326 326 325 326 325 324 322 322 322 322 321 321 320 319 319 320 321 321 322 322 321 320 318 317 317 318 317 316 314 314 314 315 315 314 313 313 312
328 327 328 328 328 328 329 330 331 331 331 331 331 331 331 331 331 330 329 330 331 331 331 331 330 330 330 331 332 332 332 332 332 330 329 329 329 329 329 328 326 326 326 326 326 326 325 325 325 324 324 325 325 324 323 322 321 321 320 319 319 319 319 320 320 321 321 322 322 321 318 317 317 318 317 315 314 314 315 315 314 313 313 313 312
328 328 328 328 328 329 329 329 330 330 330 330 329 329 329 329 329 329 328 329 329 329 330 329 328 328 329 330 330 330 330 331 331 330 329 328 328 327 327 326 326 325 325 325 325 326 326 325 325 325 325 325 325 325 325 324 323 322 321 319 319 319 319 320 320 320 321 321 322 321 319 318 318 318 317 315 315 315 315 315 314 313 313 313 313
327 327 328 327 327 328 328 329 329 329 329 328 326 325 325 326 327 328 327 327 327 327 328 328 327 328 329 329 328 328 329 329 329 329 327 326 326 325 325 325 326 326 325 324 325 326 327 326 327 326 326 325 325 325 324 323 323 323 322 321 321 321 320 320 320 320 321 321 321 320 319 318 318 318 316 316 315 315 315 315 314 314 314 314 313
325 325 325 325 325 326 327 327 327 327 326 326 325 323 322 323 323 324 324 323 324 324 325 326 327 328 327 327 326 326 326 326 326 325 325 324 325 325 325 325 325 325 325 324 324 326 327 327 327 327 326 325 324 323 323 322 322 323 322 322 322 322 321 321 321 321 320 320 319 319 319 319 318 317 316 316 315 314 315 315 314 314 315 314 314
325 325 324 323 323 324 325 325 325 325 324 324 324 323 322 321 321 321 321 322 322 323 323 323 324 325 324 324 323 324 324 324 323 323 324 324 325 324 324 324 324 324 324 324 324 326 327 327 327 326 326 325 324 323 322 322 322 322 322 322 322 322 321 321 320 320 320 319 318 318 318 318 318 317 316 316 315 314 315 315 315 314 314 314 314
323 323 322 321 321 322 323 323 323 323 323 322 322 322 321 321 320 319 319 320 320 320 320 321 322 322 322 323 322 322 323 323 323 323 323 324 324 324 324 324 324 324 323 323 324 325 326 325 325 325 325 325 324 323 322 322 322 322 323 323 322 322 321 320 320 319 319 318 317 317 317 317 317 317 316 315 315 314 315 315 315 315 314 314 313
321 320 320 320 320 319 320 321 321 321 321 321 321 321 321 320 319 318 317 317 317 317 317 317 318 318 319 319 319 319 319 319 320 321 321 322 322 323 323 323 323 323 322 322 323 324 324 323 324 324 323 323 323 323 323 323 323 322 323 323 322 322 322 321 320 319 318 317 316 316 316 317 317 317 316 315 315 314 315 315 315 314 314 313 313
318 318 317 319 320 320 319 320 320 320 320 320 320 320 320 320 319 318 318 318 318 318 317 317 317 316 317 317 317 317 317 317 317 317 318 319 318 319 320 321 321 320 320 320 321 321 321 321 322 322 323 322 322 322 322 323 323 322 322 322 322 322 322 321 320 319 318 317 317 317 317 317 317 316 315 315 315 315 316 315 314 313 313 313 312
316 316 317 319 321 321 320 320 320 320 320 319 319 319 319 319 319 319 319 319 319 319 319 318 316 316 316 317 317 317 316 316 316 316 316 316 316 316 318 320 321 320 320 320 320 320 320 320 321 321 322 321 321 321 322 322 322 322 322 322 322 322 322 321 321 319 318 317 317 317 316 316 316 316 315 315 315 316 316 315 314 314 313 312 312
316 316 318 319 320 320 321 321 321 320 320 320 319 319 318 318 318 318 318 319 319 319 320 319 317 316 315 315 315 315 316 315 315 316 316 316 315 316 318 320 320 319 319 319 319 319 319 319 319 320 320 321 320 321 321 321 321 321 322 322 322 322 322 321 321 320 318 318 317 316 316 316 316 316 316 316 317 317 316 315 315 314 313 313 313
317 318 319 319 320 320 320 320 320 320 320 320 319 318 317 317 317 317 317 318 318 318 318 318 318 318 317 315 314 313 313 313 314 314 314 315 315 316 317 319 318 318 318 318 317 318 318 318 318 318 319 319 319 319 319 320 320 320 321 321 321 321 321 320 320 320 319 318 317 317 316 316 317 317 317 318 318 317 316 315 315 314 314 313 313
318 318 318 319 319 319 319 319 319 319 319 318 317 316 316 316 316 316 317 317 317 317 317 317 317 317 317 317 315 314 313 314 315 315 315 315 315 316 316 317 317 317 317 317 317 317 316 317 317 317 317 318 318 318 318 318 318 319 319 320 320 320 320 319 319 320 320 319 318 317 318 318 318 318 319 318 318 318 317 316 315 315 314 314 314
316 316 317 319 319 319 319 319 318 317 317 316 316 316 316 316 316 316 316 316 316 316 316 316 317 317 317 317 316 315 315 316 316 315 316 316 316 316 316 316 316 316 316 316 316 316 316 316 316 316 316 317 317 317 318 318 318 318 318 318 318 318 319 319 320 320 320 320 319 319 319 320 320 320 320 319 319 319 318 317 316 315 314 313 313
315 315 316 317 318 318 317 317 316 315 315 315 315 315 315 315 315 315 315 315 316 316 315 316 316 316 315 314 314 313 314 315 315 315 315 315 315 315 316 316 316 316 316 315 315 315 315 315 315 315 315 316 316 316 317 317 317 317 318 317 317 317 317 318 319 319 320 321 320 319 319 319 320 320 320 319 318 318 318 317 316 315 314 313 312
314 314 315 315 315 315 315 315 315 315 315 315 315 314 314 314 314 314 314 314 314 314 314 314 315 315 313 313 312 312 313 314 314 314 314 315 315 315 315 315 315 315 315 315 315 315 315 314 314 315 315 315 315 315 316 316 316 317 317 317 317 317 317 317 317 318 319 319 319 319 318 318 318 319 319 319 318 318 318 317 316 315 314 313 312
314 314 315 315 314 314 314 314 315 314 314 314 313 313 313 312 312 312 312 312 311 312 312 312 313 314 313 312 311 311 312 314 314 314 314 314 314 314 314 315 315 315 316 316 315 315 315 314 314 314 314 314 315 315 315 315 316 316 316 317 317 317 317 317 317 317 317 316 317 317 317 317 317 317 317 318 318 318 318 317 316 314 314 314 313
314 314 315 314 314 314 314 313 313 313 312 312 311 310 310 310 310 310 310 310 310 310 311 311 311 312 313 313 312 312 313 313 313 313 314 314 314 314 314 314 315 315 315 315 315 314 314 314 313 313 313 314 314 314 314 315 315 315 316 316 316 316 316 316 316 316 316 315 316 316 315 316 316 316 315 315 316 316 317 317 316 314 313 313 313
313 313 314 314 314 313 313 312 311 310 310 310 309 309 309 309 308 308 308 308 308 308 309 309 309 310 311 312 312 312 312 312 312 313 313 313 313 313 313 313 313 313 313 314 314 314 314 314 314 314 314 314 314 314 314 314 314 314 314 315 315 315 315 315 315 315 316 315 315 315 314 314 314 314 313 314 314 314 315 316 315 314 313 312 313
311 311 312 312 312 311 311 311 310 309 309 309 309 308 308 308 308 308 307 307 307 307 307 307 308 309 309 310 311 311 311 312 312 312 312 312 312 312 312 312 313 313 313 313 313 313 314 314 313 314 314 314 313 314 313 313 314 314 314 314 314 314 315 315 315 315 315 315 315 315 314 313 312 311 311 312 312 313 313 314 314 314 312 311 312
310 310 311 311 310 310 310 310 309 309 309 309 309 308 309 308 308 307 307 306 307 307 307 307 307 308 309 310 310 311 311 311 311 312 312 312 312 312 312 312 312 312 312 312 312 312 312 312 312 312 313 313 312 313 313 313 313 313 313 313 314 314 314 314 314 314 314 314 314 314 314 313 312 311 311 310 310 310 311 312 312 313 312 311 311
310 310 310 310 309 309 309 309 309 308 308 308 308 308 308 308 307 308 308 308 308 308 308 308 308 309 309 310 310 311 311 311 311 311 311 311 312 312 311 311 311 311 310 310 310 310 311 311 311 311 311 311 311 311 311 312 312 312 312 313 313 313 313 313 313 313 313 313 313 313 313 313 313 313 312 310 309 309 309 310 311 311 311 310 310
309 309 310 309 309 309 309 309 309 308 308 308 308 307 308 308 308 308 308 308 308 308 308 309 309 309 310 310 311 312 311 311 311 311 311 311 311 311 310 310 309 309 308 308 309 309 309 309 309 309 309 309 310 310 310 310 310 311 311 311 312 312 312 312 312 312 312 312 312 312 312 312 312 313 313 312 311 310 309 309 310 310 310 310 309
309 309 310 310 310 310 309 309 309 308 308 308 308 308 308 308 308 308 308 308 308 309 309 309 309 310 310 311 311 311 311 310 310 310 310 310 309 309 307 307 306 306 306 306 306 306 307 307 307 307 308 308 308 309 309 309 310 310 310 310 311 311 311 311 311 310 310 309 309 309 310 311 311 312 313 313 312 311 310 309 309 309 309 309 309
309 309 310 310 310 310 310 309 309 309 308 308 308 308 308 308 308 309 309 309 309 309 309 309 309 309 309 309 309 309 309 309 308 308 308 307 307 305 304 304 304 303 302 302 303 303 304 304 305 305 305 306 306 306 307 308 308 308 309 309 309 309 309 308 308 308 308 308 307 306 307 308 310 311 311 312 312 312 311 310 309 309 308 308 308
Wind_Speed
25 25 25 24 23 22 21 21 21 20 19 18 18 17 16 16 16 16 17 17 16 16 17 16 16 16 16 15 15 15 15 15 15 15 15 14 14 14 14 15 17 16 15 15 16 16 15 14 13 12 11 10 10 9 8 8 8 7 7 7 6 5 5 5 5 4 2 2 3 3 3 4 5 5 7 8 8 9 9 9 8 8 8 8 9
25 25 24 24 24 23 22 21 21 20 19 19 19 18 17 17 17 17 19 19 18 17 18 17 16 16 16 16 16 16 15 15 15 15 15 15 16 15 15 16 16 16 15 16 16 16 15 15 14 13 13 12 10 9 9 9 9 9 9 9 8 7 6 6 6 6 5 3 3 4 3 3 4 5 7 8 8 9 10 8 7 8 8 8 8
24 24 23 23 24 23 21 21 21 20 20 19 19 19 18 17 18 19 19 19 18 18 18 17 17 17 16 16 16 16 16 15 15 15 15 16 17 17 17 17 17 16 16 16 16 16 15 15 15 14 14 13 12 11 11 11 11 11 10 9 8 7 7 7 6 6 6 4 4 4 2 2 4 5 6 6 7 9 8 7 7 8 7 8 8
23 23 22 22 22 22 21 21 20 20 20 20 19 19 19 19 19 20 20 19 19 18 18 18 17 17 17 17 16 16 16 16 16 16 16 16 17 17 17 17 17 17 17 17 17 16 16 15 15 15 15 14 14 13 13 13 12 11 11 10 9 8 8 7 7 6 6 5 4 3 3 3 4 4 5 6 6 6 6 6 7 6 6 8 8
22 22 22 21 21 21 21 21 20 21 20 19 20 20 20 20 20 20 20 20 19 19 18 18 18 18 18 17 17 17 16 16 17 17 17 16 16 16 17 17 18 18 18 18 18 17 17 16 15 16 16 16 15 14 13 13 13 11 11 10 9 9 8 8 7 7 6 6 5 3 3 3 4 4 3 5 6 5 4 5 6 6 6 8 8
21 21 21 21 20 20 21 21 21 21 20 20 21 21 21 21 20 20 21 20 19 19 18 18 18 18 18 17 17 17 17 17 17 17 17 16 16 16 16 17 17 18 18 17 17 17 17 17 16 16 16 16 14 13 13 13 13 12 11 11 10 9 8 8 7 7 6 6 5 4 4 3 3 3 3 4 5 4 5 6 5 5 6 7 8
21 20 20 20 20 20 21 21 21 21 21 21 21 20 21 22 21 21 20 20 19 18 18 18 18 18 17 17 17 17 17 17 17 17 17 16 16 16 16 16 16 16 16 16 16 16 17 16 15 15 15 15 15 13 13 13 13 13 12 12 11 10 9 8 7 7 6 6 5 5 4 3 2 2 2 3 4 3 5 7 6 5 6 7 8
21 20 20 19 19 20 20 20 21 21 21 21 21 21 21 22 21 21 20 20 19 19 18 18 18 17 17 17 17 16 16 16 16 16 16 16 16 15 15 16 15 14 15 15 15 15 15 15 15 14 14 15 14 13 13 13 13 13 13 12 11 10 9 8 8 7 7 6 6 5 4 3 2 1 2 3 4 3 5 6 7 7 7 7 7
21 20 20 20 19 19 19 19 19 20 20 20 21 21 20 20 21 21 21 20 19 19 18 18 17 17 17 17 16 15 15 15 15 16 16 15 16 15 15 15 15 15 15 14 15 15 14 14 14 14 14 14 15 15 14 13 13 12 12 12 11 11 10 9 8 8 7 7 6 5 4 4 2 1 2 3 4 4 5 6 6 7 8 9 7
20 20 19 19 19 18 18 18 18 20 20 20 20 20 19 19 19 20 20 19 18 18 18 18 17 17 17 17 16 15 15 14 16 18 18 16 15 15 15 15 16 18 16 14 14 15 13 13 13 14 16 17 17 17 16 16 15 12 11 12 12 12 11 10 9 8 8 7 7 5 4 3 1 1 1 1 3 4 4 5 6 7 8 9 6
20 20 19 19 19 19 19 18 18 19 20 19 19 18 18 18 18 18 18 17 17 17 17 17 17 17 16 16 16 16 15 15 18 20 20 19 17 15 15 16 16 17 15 15 15 15 13 12 12 14 17 18 17 17 17 16 16 15 14 14 14 13 11 10 9 9 8 7 6 5 5 3 2 2 1 1 2 3 4 5 6 7 7 8 7
20 19 19 19 19 19 19 18 18 19 19 19 18 18 17 17 16 17 17 17 17 17 17 17 16 17 16 16 16 16 15 17 19 18 18 19 19 16 14 15 16 16 16 16 16 14 13 13 12 12 14 17 16 15 16 17 17 17 16 16 16 14 13 12 10 8 8 8 6 5 5 4 2 2 1 1 3 3 5 5 5 6 7 7 8
20 19 19 20 20 19 19 18 19 19 19 18 18 17 17 16 16 17 16 16 16 16 16 16 16 16 16 16 17 16 16 18 18 16 16 17 19 18 15 15 16 17 16 17 16 15 15 13 13 12 13 16 16 14 14 17 19 19 17 17 16 15 15 15 13 10 8 7 7 5 4 3 2 1 0 1 3 4 6 6 6 7 8 8 9
19 20 20 20 20 20 20 19 19 19 18 18 17 17 17 17 17 17 16 16 17 17 17 16 16 16 15 15 16 15 16 18 17 16 16 16 18 20 17 14 14 15 15 16 15 15 14 13 13 13 12 14 15 14 13 16 18 20 19 18 16 16 17 17 16 15 11 8 7 5 4 2 2 2 1 2 4 6 7 8 8 8 9 10 10
19 20 20 21 21 20 20 19 19 19 19 18 18 17 17 17 17 17 16 17 18 19 18 18 17 16 15 15 15 15 16 18 17 16 17 16 17 20 18 14 13 14 14 14 13 13 13 13 13 13 12 13 15 16 15 15 17 19 18 17 15 15 17 18 17 16 14 10 8 6 4 4 3 3 3 3 4 5 6 8 8 9 10 11 10
18 20 20 20 21 21 20 20 19 18 18 18 18 18 18 17 17 17 17 17 18 18 18 18 18 18 17 16 16 15 16 19 18 16 16 16 17 19 19 15 13 14 13 13 13 13 13 13 13 13 13 13 16 18 19 17 17 18 18 17 16 15 16 17 18 16 14 13 11 9 8 8 8 7 7 6 6 5 6 8 8 9 11 10 9
17 19 21 20 20 20 21 20 19 18 18 18 18 17 17 17 17 17 17 18 18 19 19 18 18 18 17 17 16 15 16 19 19 17 17 18 18 19 18 16 15 15 14 13 14 13 14 14 14 14 14 14 17 19 20 20 18 18 18 17 17 16 15 16 18 18 16 16 15 13 12 11 11 11 11 11 10 8 8 9 9 10 10 10 9
17 18 20 21 20 20 20 20 20 19 19 18 18 17 16 16 17 17 17 17 18 19 18 17 17 17 18 18 16 15 15 18 19 18 19 19 20 19 18 16 16 15 14 14 13 13 14 16 17 15 13 15 18 19 21 22 20 18 18 18 17 17 15 15 16 17 18 18 17 15 14 13 13 12 11 11 12 11 11 10 9 10 10 10 9
17 16 18 21 21 21 20 20 20 20 20 19 18 18 17 17 16 16 17 16 16 16 17 17 17 17 17 18 18 16 15 16 18 19 19 20 21 19 17 16 17 16 15 14 14 14 14 16 20 20 16 15 18 18 20 23 23 20 19 18 18 17 16 15 14 15 16 18 18 17 16 15 14 13 12 12 11 12 13 11 10 10 11 11 10
16 15 16 19 22 22 21 22 22 21 20 20 19 18 17 17 16 16 16 16 15 15 16 16 16 16 16 17 18 17 15 15 17 19 20 21 21 20 17 16 17 16 15 15 15 14 14 14 18 21 20 19 19 19 19 22 24 21 19 18 18 16 15 15 15 14 14 15 16 15 15 14 13 12 12 12 11 12 13 12 11 10 11 11 10
14 14 14 16 20 23 23 24 24 23 22 21 20 18 17 16 17 17 16 16 15 15 15 15 15 16 16 16 16 16 16 16 18 20 21 21 22 22 19 16 16 15 14 15 15 14 15 14 14 17 20 21 21 21 19 20 22 22 20 18 17 16 14 14 15 15 14 13 13 14 13 13 12 11 10 11 10 11 12 12 12 11 11 11 10
11 11 12 14 16 19 21 24 26 24 23 22 21 19 17 17 17 17 16 15 16 16 16 15 15 16 16 16 15 15 16 18 19 20 21 20 21 23 20 16 15 15 13 13 13 13 13 12 12 13 15 17 18 20 20 19 20 22 22 20 17 17 17 15 14 14 14 14 14 15 14 14 12 11 11 11 10 10 10 10 11 11 11 11 10
11 8 8 10 12 12 15 21 24 22 22 23 21 18 17 17 16 16 16 15 16 17 18 18 18 18 18 16 15 14 16 19 20 21 21 21 21 22 20 17 17 15 12 10 11 10 9 9 9 11 13 13 15 16 17 19 21 23 24 23 22 21 19 16 15 16 16 16 17 17 16 15 13 13 13 12 11 10 10 10 10 10 11 11 12
17 12 9 7 8 8 10 14 17 17 20 22 19 16 15 16 15 16 17 17 17 18 19 19 19 19 18 16 15 15 15 17 19 21 20 20 20 19 19 19 18 15 12 10 9 8 7 7 8 10 11 11 13 13 14 17 20 22 23 23 25 26 22 16 15 17 17 17 18 18 16 15 14 15 15 13 11 9 9 9 10 10 10 12 12
21 21 18 13 9 8 9 11 12 13 17 19 16 15 15 16 16 17 18 18 17 18 19 19 19 19 19 16 15 15 15 14 16 20 20 19 18 18 17 17 16 16 14 12 10 10 11 10 10 11 11 12 13 13 15 17 18 20 21 22 25 27 23 18 17 18 19 19 19 18 17 16 16 17 15 11 9 8 8 9 9 10 10 11 12
20 23 24 20 16 13 12 12 11 12 14 15 15 15 16 16 16 16 16 17 17 18 20 20 19 18 17 16 15 15 15 13 14 19 21 19 18 18 18 17 16 16 16 15 15 16 17 16 15 14 14 14 13 13 15 17 17 18 19 22 26 26 22 19 19 20 20 20 19 18 17 16 17 15 12 11 10 9 9 9 9 10 10 9 10
21 21 22 23 22 19 16 14 13 13 13 13 13 14 15 15 15 14 14 15 17 16 16 18 19 18 17 16 15 15 16 15 14 17 21 21 20 19 19 18 18 18 18 18 18 18 17 17 17 16 14 14 14 14 15 16 17 17 18 21 25 25 23 21 20 21 21 21 20 18 17 17 16 13 12 12 11 10 10 10 10 10 10 9 9
20 20 20 20 21 20 18 16 14 13 13 12 12 12 12 13 12 12 13 15 16 15 14 15 17 17 15 16 16 15 16 16 16 18 22 22 20 20 21 20 20 20 20 19 17 15 13 12 13 13 12 12 13 13 13 13 13 15 16 18 21 23 23 22 21 21 21 21 20 19 19 19 16 13 13 13 12 11 10 10 10 10 9 9 9
16 16 16 15 15 15 15 14 13 12 13 12 11 11 11 11 10 10 12 13 14 15 15 14 14 13 11 12 13 14 15 16 17 19 22 22 22 22 23 22 20 19 19 18 14 11 10 10 10 10 10 10 11 11 12 13 13 14 15 15 16 18 20 21 22 22 22 21 21 21 21 20 18 15 15 14 13 11 11 11 11 11 10 10 10
15 15 14 13 13 12 12 12 12 12 12 13 13 14 13 11 10 11 13 13 12 13 13 13 13 13 10 6 6 8 12 16 19 21 22 22 22 22 22 21 20 17 17 17 14 10 10 10 11 11 10 10 11 12 13 15 16 17 17 16 16 17 18 20 22 23 23 22 22 23 23 22 20 19 18 16 13 12 12 12 12 12 11 11 11
14 13 12 12 13 13 12 11 12 12 12 13 14 15 15 13 11 12 12 13 13 13 12 11 12 14 11 7 5 6 9 13 16 18 20 21 21 20 20 20 19 17 16 15 14 11 11 11 11 11 11 11 11 11 13 14 16 17 17 17 18 20 21 22 22 22 22 22 22 23 25 25 23 22 21 18 15 13 13 13 14 14 13 12 12
14 11 12 14 14 14 13 13 13 13 13 13 14 14 15 15 13 11 10 10 11 11 11 10 11 12 12 10 9 8 9 9 9 11 14 18 19 18 17 17 17 16 15 13 11 11 11 12 12 11 11 12 12 13 14 15 15 16 17 17 18 20 22 23 24 22 20 20 21 22 22 22 22 24 22 19 16 15 14 15 16 16 15 13 13
16 13 13 13 13 13 14 14 14 13 13 13 13 13 14 14 13 13 13 13 12 13 12 11 11 11 11 10 10 10 10 10 8 8 10 13 15 15 15 14 14 14 13 12 10 10 11 11 11 11 11 12 13 13 13 14 15 15 16 17 18 18 19 21 23 22 22 22 21 21 21 22 24 26 23 19 17 16 16 18 18 17 16 15 14
17 16 15 14 13 13 13 13 13 13 13 12 12 11 11 13 14 14 14 12 12 13 12 10 10 10 9 8 9 10 10 11 10 10 11 11 11 12 12 12 12 13 12 11 11 11 11 11 11 12 12 13 13 13 13 14 14 14 14 16 16 17 18 19 20 22 23 24 23 23 24 25 26 25 23 20 18 17 18 21 20 19 18 17 15
17 17 16 14 13 13 12 12 13 14 13 13 12 11 10 10 12 13 12 12 11 11 11 11 11 10 8 9 10 10 10 11 12 12 12 11 10 10 9 9 10 10 11 12 12 12 13 13 13 13 13 13 14 13 14 14 13 13 14 14 14 15 15 17 19 20 21 22 23 23 23 24 25 24 23 21 20 20 21 22 22 20 20 18 16
19 19 18 15 13 13 13 11 9 11 13 13 13 12 11 9 8 8 9 11 11 12 12 13 13 11 10 11 11 11 12 12 13 12 11 10 10 9 8 7 8 9 10 11 12 13 13 13 13 14 14 14 14 14 13 13 13 13 13 13 13 14 14 15 17 17 18 20 21 21 21 22 23 23 23 22 23 23 23 23 22 21 20 19 17
17 17 16 14 13 14 14 11 9 11 12 13 12 12 11 9 8 7 7 8 9 10 12 14 15 14 12 11 11 11 12 11 10 9 8 8 9 8 7 7 7 8 9 10 11 12 13 13 13 13 13 13 14 14 13 13 13 14 13 13 13 14 14 14 14 14 15 18 20 21 23 24 23 23 24 23 23 24 24 23 23 21 20 19 17
13 12 11 12 13 13 12 12 13 12 11 10 10 9 9 9 9 8 8 8 8 8 9 11 12 12 11 11 9 8 8 8 8 8 7 6 7 7 6 6 6 7 8 9 10 11 12 12 13 13 13 14 14 14 14 13 13 13 13 12 12 13 14 16 17 15 15 18 20 21 23 25 25 25 25 24 24 25 25 24 23 21 19 19 18
11 12 13 14 14 12 11 13 13 11 9 9 9 9 8 9 9 9 8 9 8 7 8 8 8 7 8 9 8 7 6 7 7 6 6 6 6 6 5 5 5 6 7 7 8 9 11 11 12 12 12 13 14 14 15 14 14 13 13 13 13 14 14 15 16 16 16 19 21 21 22 23 25 26 26 24 24 26 25 24 23 22 20 19 19
13 15 16 15 13 12 12 12 10 9 9 9 10 9 9 8 8 8 8 8 7 7 7 7 7 6 6 6 5 4 4 4 4 4 4 5 5 5 5 5 5 6 6 6 7 8 9 10 11 11 11 12 13 14 14 14 15 14 14 13 14 14 14 14 15 16 17 18 20 21 22 22 23 24 24 24 25 25 25 24 23 23 22 20 18
16 17 16 15 13 12 11 10 9 9 9 9 9 9 9 8 7 6 6 6 6 6 6 5 7 7 6 4 4 2 3 3 2 2 3 3 4 4 5 5 5 6 6 7 7 8 9 9 10 10 11 11 12 12 13 14 14 15 14 14 14 14 15 16 16 17 17 17 19 22 24 23 22 22 23 24 24 24 25 25 24 23 22 21 18
17 17 16 14 13 11 11 10 10 9 9 9 9 9 8 8 7 6 6 6 5 5 5 5 7 8 6 4 3 1 3 3 2 2 3 3 3 4 4 5 6 6 7 7 8 8 9 9 10 10 11 11 12 12 13 13 14 14 15 15 15 16 16 16 17 18 18 19 20 22 23 23 23 24 24 24 24 23 24 25 24 23 22 21 20
15 14 13 12 11 10 11 10 10 10 9 9 10 9 9 9 8 7 7 6 5 4 4 4 5 7 7 5 2 2 3 3 2 2 3 3 3 4 4 5 5 5 6 7 7 7 8 9 10 10 11 11 12 12 13 13 14 14 15 15 16 17 17 17 17 18 19 20 19 19 19 21 23 24 23 22 22 23 23 23 24 24 22 21 21
13 12 11 10 10 10 10 10 10 10 10 10 10 9 8 8 8 7 6 6 5 4 3 3 3 4 6 6 4 3 3 2 2 2 2 3 3 4 4 4 4 4 5 6 6 6 8 9 11 12 12 12 12 13 13 13 14 14 15 15 16 16 17 18 19 20 21 20 19 18 19 20 22 22 22 21 21 22 22 23 24 24 23 22 21
12 11 11 10 10 10 10 10 10 11 10 10 10 8 8 7 7 6 5 5 4 2 1 1 1 1 2 3 3 2 2 1 2 2 2 3 3 3 3 4 4 5 6 6 6 7 8 9 10 12 12 13 14 14 14 15 15 15 15 16 16 16 17 19 20 21 22 20 18 17 19 22 23 23 22 22 23 23 23 25 26 26 26 24 22
11 11 10 10 9 10 9 10 10 10 9 8 8 8 7 6 6 6 5 4 4 2 2 1 1 2 2 2 2 2 2 2 2 2 2 3 3 4 4 4 5 5 6 6 7 7 8 9 10 11 12 13 14 15 15 15 16 16 16 16 17 17 18 19 20 21 22 21 19 18 20 23 26 26 25 23 24 23 22 24 27 29 30 29 26
10 10 10 9 9 9 9 9 8 7 7 6 6 6 5 5 5 5 5 4 3 2 2 2 2 2 3 3 3 3 3 3 3 3 3 4 4 4 4 5 5 6 6 6 7 8 8 9 10 11 12 13 14 15 15 15 15 16 16 17 17 17 18 18 20 22 23 22 20 20 21 22 24 27 27 25 25 25 26 26 26 28 30 32 30
8 8 8 8 8 8 8 8 7 6 6 6 5 4 4 3 3 2 3 3 2 1 2 3 3 3 3 3 4 4 4 4 5 5 5 5 5 5 5 6 7 8 8 8 8 8 8 9 10 11 12 13 14 14 15 15 15 15 16 16 17 18 19 20 21 22 22 22 21 21 21 23 24 25 25 25 26 27 29 29 28 26 28 31 31
5 5 5 5 5 5 5 5 6 6 6 5 5 4 4 3 2 1 0 0 1 2 3 3 3 4 4 4 4 4 5 5 6 6 6 6 6 6 6 6 7 8 8 8 9 9 9 11 11 12 13 14 14 14 15 16 16 16 16 16 18 20 21 21 21 21 23 25 24 22 22 24 25 24 23 24 26 26 27 27 27 25 25 28 29
2 2 2 2 2 3 3 3 4 4 4 4 5 4 4 3 2 1 2 2 1 1 2 3 3 3 3 3 4 4 5 6 6 7 7 8 8 8 8 7 8 8 9 9 10 10 10 11 12 12 13 13 14 14 15 15 16 16 17 18 20 23 24 24 24 23 24 25 25 24 24 24 24 24 24 24 25 25 24 26 28 26 24 25 27
3 2 1 1 1 2 2 2 3 3 3 4 4 4 4 4 4 3 2 2 2 2 2 3 3 3 3 3 3 4 5 5 6 7 8 9 9 9 9 9 9 10 10 10 10 10 11 11 11 12 12 13 13 14 14 14 15 17 19 20 23 25 26 28 29 27 25 24 23 24 24 24 23 24 25 25 25 25 25 27 29 28 25 24 26
Wind_Direction
189 192 196 201 203 202 203 204 206 209 209 208 209 213 214 213 213 213 215 213 209 208 209 207 202 201 202 201 200 200 198 197 198 197 196 198 200 202 203 203 206 206 200 195 198 202 201 201 204 204 204 207 211 212 211 211 213 219 223 222 221 218 220 240 261 268 248 224 249 267 284 306 312 322 329 324 322 322 319 313 305 304 305 300 298
190 192 195 199 202 202 201 201 204 205 205 206 209 212 213 212 212 214 215 214 210 208 208 207 204 202 202 202 201 200 200 199 199 200 200 200 202 205 206 207 211 211 206 201 202 206 206 206 206 204 202 205 209 212 210 207 209 215 219 221 218 210 212 229 248 262 260 242 252 258 256 296 307 315 324 321 322 323 320 318 315 307 302 296 293
191 191 193 197 200 199 198 200 203 203 204 207 210 212 213 211 212 214 213 211 210 209 209 208 205 204 203 203 202 201 200 200 200 202 204 205 205 207 207 209 212 213 212 208 207 209 209 210 210 205 202 202 205 210 208 205 208 214 216 218 219 213 213 227 244 262 271 265 265 268 271 307 306 306 315 315 317 322 322 325 323 313 304 299 297
190 190 192 196 197 196 195 198 201 203 206 210 212 213 212 211 212 213 212 210 207 208 210 210 207 206 206 205 204 202 199 198 200 203 206 208 210 210 209 210 213 214 214 213 213 213 211 212 212 207 202 203 204 207 208 207 208 215 216 214 217 218 215 222 234 250 267 270 272 283 298 310 306 305 318 321 317 318 324 329 324 314 308 307 302
188 188 190 193 194 193 192 195 199 203 206 209 212 212 211 211 211 210 210 209 207 207 208 210 209 207 207 207 206 205 202 200 201 202 205 210 213 215 214 213 215 216 217 217 218 217 215 213 215 212 207 206 207 207 209 211 211 214 217 215 216 217 214 219 228 235 251 267 275 277 279 296 306 306 324 331 323 318 325 329 322 313 312 311 304
185 186 187 190 193 192 190 192 197 200 202 206 209 210 211 211 209 207 208 207 207 207 207 208 210 209 209 208 208 208 206 205 205 205 208 212 213 215 215 215 216 218 220 222 222 220 217 215 216 214 210 210 212 210 210 212 213 214 215 216 216 214 211 217 225 231 243 258 269 264 253 266 295 305 327 334 324 324 337 333 322 321 324 318 309
183 184 186 188 192 194 192 192 195 198 202 206 207 207 209 210 207 204 207 207 206 206 207 208 209 210 211 210 209 209 207 207 208 209 211 214 213 212 213 213 216 219 224 227 225 221 219 218 217 213 212 215 216 214 214 212 212 213 213 215 215 212 212 216 220 229 239 246 251 250 245 240 252 284 324 329 317 333 351 340 328 333 333 319 310
181 183 184 188 193 195 195 194 195 198 202 205 205 207 209 209 207 204 206 208 208 207 207 207 208 211 213 212 211 209 208 207 209 210 211 211 209 210 212 212 214 219 226 230 229 225 221 220 220 216 216 219 220 220 219 215 212 213 213 213 211 209 211 214 218 226 230 234 239 238 237 239 238 271 319 328 327 340 353 341 328 330 330 317 312
180 181 183 187 192 195 195 194 195 198 200 202 205 207 208 208 208 207 208 209 209 209 209 208 209 210 211 212 211 209 209 210 210 209 207 208 208 207 208 209 210 214 218 224 232 232 224 222 224 221 220 222 222 219 217 215 214 213 213 210 205 205 210 215 222 227 224 225 228 225 228 234 236 304 316 338 346 339 339 334 325 326 325 316 312
179 180 184 186 188 191 192 192 194 196 198 201 204 206 207 207 208 210 210 209 208 209 210 209 208 208 209 210 209 209 210 212 211 207 203 204 204 203 204 204 207 213 212 214 230 234 225 223 227 224 223 226 226 222 219 221 221 217 214 207 200 202 211 217 224 226 223 225 224 221 231 231 221 275 295 339 340 330 334 332 327 328 325 318 313
177 180 182 184 184 188 191 192 194 199 200 200 203 204 205 206 208 209 210 209 208 208 208 209 208 207 208 207 206 206 207 211 214 210 206 206 203 200 202 203 204 210 209 210 223 230 227 224 225 226 227 229 229 226 224 225 224 219 216 210 203 204 211 220 225 223 224 229 223 223 233 223 214 240 247 306 323 331 334 321 319 326 325 322 315
176 178 179 179 181 186 190 192 196 202 202 200 202 202 202 204 206 208 208 208 208 207 208 209 208 208 209 206 205 205 207 214 217 215 212 214 210 203 202 203 202 203 207 210 217 225 227 223 218 221 227 227 224 224 225 223 217 215 220 220 214 213 214 218 223 224 225 229 224 224 229 223 225 237 238 329 324 320 312 304 316 322 314 312 306
175 176 176 175 178 183 187 189 194 199 202 202 202 201 201 203 207 208 208 208 208 208 209 210 209 209 210 209 207 206 210 218 220 215 214 216 213 208 206 207 205 204 207 211 215 221 223 219 213 212 221 224 221 219 222 219 212 211 219 221 220 221 218 216 218 217 214 222 228 227 227 230 251 259 25 337 309 307 309 310 316 313 304 307 309
177 175 176 175 176 180 183 185 189 192 195 198 199 200 202 203 206 209 207 207 208 208 210 212 211 211 211 213 213 209 213 222 222 216 215 216 211 208 210 212 209 207 208 209 212 217 217 214 213 211 213 220 219 214 213 213 209 209 213 215 217 219 218 217 218 214 207 210 225 225 216 222 255 287 303 285 290 302 309 311 315 313 308 306 298
179 174 176 176 175 177 181 185 188 189 189 190 191 195 198 199 202 204 204 206 209 210 211 211 211 213 214 215 216 214 217 224 223 217 217 216 210 207 210 215 214 211 212 212 214 218 217 216 219 217 214 214 214 212 209 207 206 205 206 211 213 214 216 217 219 215 209 213 223 222 217 217 223 237 244 255 278 294 297 302 306 299 297 298 286
186 174 173 175 174 176 180 183 186 188 187 186 187 190 193 195 197 198 200 205 208 209 211 211 211 213 214 214 217 218 220 223 222 218 216 212 206 203 206 214 218 217 218 218 219 222 221 219 220 221 219 215 216 218 214 208 207 206 205 208 212 213 214 218 219 215 209 211 215 215 216 218 220 229 238 248 260 274 283 289 285 275 280 293 293
196 178 172 175 175 176 178 179 181 184 185 187 188 191 193 195 195 195 197 200 202 206 210 211 212 213 213 214 216 216 219 221 219 216 213 208 201 197 201 209 216 219 220 219 220 222 223 221 219 221 223 217 220 225 220 212 210 211 208 208 212 215 215 217 222 222 217 214 217 219 222 227 235 244 250 255 256 260 268 276 286 292 294 294 291
204 186 174 173 175 176 177 177 177 180 184 188 190 192 195 197 196 196 197 199 200 203 205 207 210 212 212 214 215 214 217 220 217 211 209 207 200 195 197 204 210 216 219 220 223 224 224 224 221 221 223 220 221 226 222 214 211 214 214 212 215 220 218 214 216 220 221 222 224 227 230 236 244 248 253 258 258 259 258 261 282 299 297 286 285
203 194 180 172 172 174 175 176 177 179 184 187 190 193 197 199 198 196 198 200 201 201 200 202 207 210 211 213 214 214 216 219 217 209 206 206 201 196 198 204 206 212 216 218 224 226 225 228 229 225 223 222 224 227 225 217 214 218 220 219 222 226 222 218 217 217 220 222 225 229 233 239 245 248 251 255 254 256 255 252 266 282 282 280 281
198 198 191 178 173 173 174 174 175 177 181 184 187 193 197 198 198 196 197 199 201 200 198 199 204 207 209 211 213 213 213 216 216 210 206 206 202 197 201 206 204 208 214 217 223 226 222 225 232 231 227 224 224 229 230 223 218 220 223 224 228 229 225 226 228 227 224 222 222 225 228 232 238 239 243 248 251 255 254 245 248 262 270 274 272
189 193 196 188 179 175 173 172 172 175 177 179 182 187 193 196 196 195 196 198 199 197 195 195 199 204 208 211 212 211 209 213 217 212 207 207 204 199 202 208 208 207 212 218 223 226 224 223 229 234 233 231 230 232 236 232 226 224 226 229 233 232 229 231 231 227 229 231 226 223 224 225 225 223 229 239 243 247 248 242 241 249 257 264 267
178 183 193 197 192 183 175 172 173 175 176 176 176 179 185 191 194 194 196 198 198 196 194 194 197 203 207 211 213 210 206 210 215 212 206 206 205 202 200 206 212 210 212 220 223 227 230 228 229 233 235 235 236 236 239 240 235 231 229 230 233 233 232 236 235 227 227 233 232 231 230 226 224 228 237 242 242 239 240 241 241 246 251 256 264
168 172 190 202 203 196 183 177 174 173 175 176 173 172 178 184 188 193 198 199 197 196 196 195 196 199 204 207 209 207 204 205 208 207 203 202 203 202 198 202 210 212 214 222 226 230 237 237 236 240 242 244 247 246 244 244 242 239 235 231 232 235 235 237 241 236 232 234 237 238 236 229 228 238 245 250 252 248 243 241 241 244 253 260 263
183 190 205 213 208 204 196 185 175 170 175 179 173 168 173 178 184 196 202 201 197 196 196 195 194 197 199 199 201 202 200 200 202 201 198 198 200 200 199 204 211 213 213 219 225 230 236 236 232 236 244 252 256 255 253 248 245 244 243 237 235 237 236 235 239 239 237 237 237 238 237 232 233 244 249 250 251 241 229 233 239 243 255 265 265
193 193 198 206 212 208 201 195 184 172 175 179 175 170 173 178 186 196 201 200 196 195 195 195 195 197 199 195 193 193 190 190 196 197 193 193 197 200 202 206 212 213 212 215 217 220 227 233 234 237 248 256 256 254 254 252 248 247 246 243 239 237 235 232 233 235 235 234 235 236 235 234 239 248 247 236 224 217 218 229 241 245 252 259 258
185 184 186 190 198 207 205 196 186 176 173 176 175 173 176 181 186 190 193 195 198 198 196 194 195 198 199 193 188 187 182 179 187 192 190 190 194 198 199 202 207 212 215 216 217 220 226 233 237 244 253 257 254 252 253 254 255 252 248 244 241 236 231 228 228 231 233 233 233 235 236 240 245 241 225 209 210 220 227 232 241 246 245 244 243
180 181 182 180 185 196 199 187 176 172 171 171 170 171 176 180 181 184 189 195 199 199 195 193 196 200 199 193 186 181 179 176 178 184 187 190 194 196 198 200 203 209 215 218 221 225 230 237 241 244 249 252 251 251 252 253 253 251 246 243 240 235 230 225 226 230 234 235 234 233 236 244 242 217 197 206 222 227 226 229 240 246 236 226 228
180 182 181 178 179 183 182 176 171 168 165 163 163 164 170 176 179 183 191 196 196 195 193 192 196 201 199 192 184 179 179 178 176 180 184 187 190 191 194 198 202 208 214 218 221 224 226 234 243 241 238 243 246 246 245 242 239 238 237 237 237 235 230 227 227 231 236 237 235 231 233 240 235 210 201 218 227 223 222 225 232 238 228 216 224
169 170 169 169 168 166 164 165 166 161 153 148 143 144 155 169 173 175 186 194 191 190 193 193 196 208 213 199 190 190 189 184 180 180 182 182 184 187 191 195 198 204 212 212 207 206 208 215 227 228 222 226 233 234 236 238 237 236 232 228 229 229 226 224 226 229 232 234 234 232 233 237 233 222 221 225 223 221 227 228 227 227 218 213 224
156 158 157 157 154 150 150 151 149 145 143 138 129 127 137 151 153 152 167 181 180 180 184 181 180 192 203 195 183 185 182 179 182 183 181 180 181 185 189 192 191 196 206 205 195 196 207 214 220 223 220 221 228 236 243 246 246 245 241 234 231 231 228 225 226 228 229 230 231 232 235 235 232 229 230 227 220 220 226 228 228 225 215 210 220
149 150 148 145 142 140 141 143 140 139 139 138 132 126 125 130 134 141 158 170 170 171 175 170 167 174 176 166 155 146 145 160 176 181 178 177 179 182 185 188 189 194 200 200 197 205 219 223 225 226 224 224 229 237 246 249 248 249 248 244 241 239 238 235 232 229 225 224 224 228 232 232 232 234 234 227 220 220 220 220 225 230 225 217 221
137 135 132 133 137 139 141 144 143 141 138 137 133 128 123 121 120 121 131 142 147 152 158 159 162 169 172 175 179 168 152 157 171 178 178 176 176 179 183 186 190 195 196 196 202 218 229 232 235 236 233 233 235 240 247 249 246 245 246 246 243 242 242 243 241 235 225 221 222 223 223 226 233 238 235 224 216 218 222 223 226 233 235 227 225
133 132 132 134 138 141 140 140 138 136 135 135 133 133 131 126 119 112 110 112 116 121 126 133 141 150 159 166 168 164 164 170 178 192 196 187 179 181 185 187 192 198 197 199 213 229 235 239 243 246 245 245 246 250 251 249 247 245 245 246 246 241 240 244 247 242 228 221 220 216 212 219 233 237 230 220 214 216 226 232 231 233 239 238 232
132 138 144 143 139 137 133 129 126 124 123 124 126 128 130 131 131 127 120 114 111 111 114 122 129 135 145 153 153 152 156 161 171 187 197 191 182 183 185 185 193 200 200 205 222 234 238 242 246 247 250 251 252 255 254 251 250 250 249 251 251 244 238 239 243 242 231 220 216 216 215 220 227 229 222 216 215 218 228 237 236 234 240 243 237
125 131 135 127 116 114 113 112 116 118 116 113 112 108 106 117 132 141 142 140 135 128 128 132 135 140 150 155 153 156 161 165 172 182 186 183 179 179 178 179 188 197 202 209 222 233 239 244 246 246 249 252 253 255 255 254 252 251 250 252 252 249 244 238 236 239 238 229 219 215 216 217 219 220 218 217 218 221 227 234 237 238 240 243 241
126 126 126 117 105 103 102 102 110 116 115 114 114 109 105 107 118 131 139 143 144 141 136 131 131 137 147 151 152 158 166 173 179 182 182 183 181 180 185 193 198 202 207 214 225 233 239 245 249 252 255 257 258 258 258 257 256 255 255 256 255 252 250 243 232 230 238 239 229 217 214 217 218 218 218 219 221 225 230 233 235 236 238 240 240
134 134 135 131 124 119 115 115 119 118 114 114 116 118 120 122 124 129 133 135 140 143 140 135 135 137 138 142 149 155 159 164 172 174 175 177 177 184 206 226 225 224 226 227 231 238 242 247 251 254 258 261 263 264 263 262 262 261 259 259 259 257 256 255 246 231 230 239 237 223 214 216 219 218 219 220 221 225 230 232 233 233 232 231 232
142 146 148 143 138 133 129 130 132 128 121 120 123 126 131 133 134 137 138 136 140 146 145 146 151 151 143 141 148 153 152 154 160 165 169 176 182 194 220 239 239 241 246 243 241 245 251 256 260 262 264 266 269 270 270 270 270 269 267 265 262 258 257 259 258 246 233 236 239 230 220 217 219 219 219 219 221 226 228 229 230 230 225 220 222
152 156 152 144 140 138 133 133 137 137 133 131 131 132 136 137 138 140 139 138 142 143 140 145 154 151 139 139 150 161 168 171 172 171 173 182 192 202 220 235 238 244 253 256 253 253 257 261 265 268 269 271 273 273 272 272 271 273 274 273 269 265 261 257 254 248 240 237 236 232 226 223 221 221 220 218 219 223 224 224 226 227 225 221 222
146 148 147 140 134 132 132 137 143 143 140 137 135 135 137 135 135 140 141 138 138 137 136 141 140 129 125 138 154 178 200 202 198 199 198 198 205 213 222 236 245 249 254 259 261 260 262 265 267 268 268 270 271 273 274 273 271 269 268 269 269 268 266 260 252 246 243 241 238 235 234 231 227 223 221 219 218 219 221 223 223 222 225 229 228
139 140 139 134 128 127 131 138 140 136 136 138 135 134 133 131 131 135 135 134 135 135 138 142 132 123 128 149 160 194 262 252 216 221 233 227 230 238 239 244 252 256 258 262 264 264 266 269 271 272 272 271 272 274 275 275 274 272 268 265 264 263 263 263 260 254 250 246 243 243 244 241 235 229 225 224 222 220 221 224 223 219 221 225 224
134 134 132 131 131 129 129 132 131 131 135 135 129 126 126 124 123 122 120 121 124 125 133 140 131 127 136 156 163 205 274 274 252 253 262 254 255 263 263 263 266 266 265 270 274 275 276 277 277 278 278 276 275 276 276 275 276 276 272 268 264 261 260 262 262 261 258 254 250 249 248 244 241 239 234 227 223 223 224 225 223 219 216 215 216
125 127 127 132 134 130 129 133 134 134 133 127 121 122 124 122 121 121 118 116 115 116 124 131 131 136 144 151 166 237 248 247 245 260 271 272 277 281 279 278 281 280 276 278 281 282 283 283 283 283 283 282 281 281 280 279 278 277 275 272 269 266 265 264 264 264 264 260 256 254 249 243 242 244 239 230 223 224 225 225 221 218 214 212 213
123 126 129 131 131 128 131 136 133 126 123 121 121 124 125 123 122 120 117 114 113 116 124 121 118 141 153 157 173 214 230 235 248 269 281 288 290 292 293 295 301 300 294 291 290 286 280 280 283 284 284 283 283 283 282 281 280 278 277 278 277 273 269 267 266 267 267 263 257 252 248 243 240 242 242 238 231 224 221 220 218 215 213 212 212
128 131 132 134 134 134 134 132 127 126 129 131 130 130 128 122 115 108 105 103 96 86 96 129 142 188 187 179 187 209 234 268 285 290 302 302 299 305 315 323 325 318 310 307 304 298 290 286 285 285 283 283 284 285 284 284 283 281 279 279 279 276 272 268 267 267 267 266 261 254 249 246 242 239 240 242 240 232 224 219 216 213 211 211 211
128 131 133 135 136 135 134 132 133 138 145 145 139 135 132 123 112 101 87 74 62 39 353 315 282 265 260 251 244 250 265 279 285 292 301 307 317 327 330 330 327 321 316 314 310 306 300 293 289 287 286 285 286 286 286 286 285 283 282 280 278 276 273 272 271 268 266 266 263 257 252 250 248 245 244 244 243 239 233 226 219 212 208 208 209
127 130 134 135 135 137 138 138 139 146 151 147 143 140 135 123 115 108 96 81 67 39 353 336 314 289 277 272 272 277 280 287 296 301 303 310 321 326 330 334 331 322 317 314 310 306 301 297 294 292 291 289 288 286 285 285 284 283 282 281 279 277 274 272 273 274 271 268 264 260 256 254 252 251 250 247 243 241 241 239 231 220 211 208 207
132 133 135 137 140 145 148 148 152 162 163 156 153 154 150 141 137 134 121 108 87 23 358 354 344 330 318 307 300 299 299 299 302 303 305 311 317 319 326 332 327 319 316 314 310 306 303 300 298 296 295 293 291 289 288 286 284 283 283 283 282 282 280 277 277 279 278 274 269 266 262 258 255 252 249 244 239 236 235 237 235 226 216 211 207
130 136 144 153 159 159 158 161 171 181 183 180 178 181 184 190 199 209 207 38 3 350 347 345 344 341 338 333 327 321 316 315 318 319 319 320 322 326 332 330 320 315 315 311 307 308 307 303 301 300 297 295 294 293 292 291 288 287 287 285 283 281 280 277 274 273 272 271 271 270 265 260 258 256 250 243 239 235 231 232 234 228 218 213 208
101 125 153 177 191 192 193 199 200 201 204 206 204 203 208 218 231 259 291 301 313 334 336 335 339 342 341 342 341 332 323 321 324 326 325 325 325 329 334 332 323 319 316 311 307 308 307 303 302 302 298 297 297 295 293 293 292 290 285 280 277 276 276 275 274 273 271 270 269 267 263 258 257 258 255 249 244 237 231 231 234 230 220 212 206
76 81 96 149 213 226 226 219 212 208 211 221 230 235 245 260 274 285 292 298 312 324 323 324 329 333 336 339 338 333 329 326 323 318 316 315 316 318 322 323 320 317 316 314 313 313 310 307 306 303 300 299 297 293 292 293 290 284 278 275 275 276 278 279 281 280 277 272 267 264 262 258 256 255 254 252 250 244 236 233 233 230 222 212 204